Location: Moscow
(55.7500°N, 37.5830°E)
Time: 05:43:29
(UTC+03:00)

Envisat - Pass Details

Date: 25 October 2021
Orbit: 764 x 766 km, 98.2° (Epoch: 28 November)

Event Time Altitude Azimuth Distance (km) Brightness Sun altitude
Rises 18:00:09 0° 211° (SSW) 3,226 6.9 -8.3°
Reaches altitude 10° 18:03:08 10° 229° (SW) 2,305 6.5 -8.7°
Maximum altitude 18:06:39 19° 273° (W) 1,787 6.1 -9.2°
Drops below altitude 10° 18:10:11 10° 318° (NW) 2,316 6.0 -9.7°
Sets 18:13:13 0° 336° (NNW) 3,248 6.5 -10.1°
